Location: Brachstadt
(48.6975°N, 10.6755°E)
Time: 09:10:46
(UTC+00:00)

Cosmos 2151 Rocket - Pass Details

Date: 18 September 2020
Orbit: 617 x 642 km, 82.5° (Epoch: 27 October)

Event Time Altitude Azimuth Distance (km) Brightness Sun altitude
Rises 18:44:21 0° 173° (S) 2,901 6.7 -14.0°
Reaches altitude 10° 18:46:37 10° 168° (SSE) 2,003 5.9 -14.3°
Maximum altitude 18:50:53 49° 94° (E) 818 3.8 -15.0°
Drops below altitude 10° 18:55:14 10° 20° (NNE) 2,034 6.2 -15.7°
Sets 18:57:33 0° 15° (NNE) 2,951 7.1 -16.0°
